Regional Weather Roundup
Issued by NWS

Home | Current Version | Previous Version | Graphics & Text | Print | Product List | Glossary On
Versions: 1 2 3 4 5 6 7 8 9 10 11 12 13 14 15 16 17 18 19 20 21 22 23 24 25 26 27 28 29 30 31 32 33 34 35 36 37 38 39 40 41 42 43 44 45 46 47 48 49 50
591
ASUS45 KPSR 230510
RWRAZ

ARIZONA HOURLY REGIONAL WEATHER ROUNDUP
NATIONAL WEATHER SERVICE PHOENIX AZ
1000 PM MST SAT APR 22 2017

NOTE: FAIR INDICATES FEW OR NO CLOUDS BELOW 12,000 FEET WITH NO
SIGNIFICANT WEATHER AND/OR OBSTRUCTIONS TO VISIBILITY.

AZZ001>003-036-230600-
NORTHWEST ARIZONA

CITY           SKY/WX    TMP DP  RH WIND       PRES   REMARKS
BULLHEAD CITY  CLEAR     79  21  11 CALM      29.80S
KINGMAN        CLEAR     56  27  32 SE7       29.97R
$$

AZZ004>008-015-016-018-230600-
NORTH CENTRAL ARIZONA

CITY           SKY/WX    TMP DP  RH WIND       PRES   REMARKS
GRAND CANYON   CLEAR     48  22  35 E3        30.15S
WILLIAMS       CLEAR     57  21  24 S8        30.15S
PRESCOTT       CLEAR     59  24  26 S7        30.06S
FLAGSTAFF      CLEAR     42  22  44 CALM      30.18R
PAYSON         CLEAR     63  23  22 CALM      30.10S
PAGE           CLEAR     58  23  26 CALM      30.06R
$$

AZZ009>014-017-230600-
NORTHEAST ARIZONA

CITY           SKY/WX    TMP DP  RH WIND       PRES   REMARKS
WINSLOW        CLEAR     52  19  27 SW5       30.08R
SAINT JOHNS    PTCLDY    52  16  24 S6        30.12R
WINDOW ROCK    CLEAR     46  18  32 CALM      30.20R
SHOW LOW       PTCLDY    48  19  32 CALM      30.17S
$$

AZZ540-542>544-546-548-230600-
GREATER PHOENIX AREA

CITY           SKY/WX    TMP DP  RH WIND       PRES   REMARKS
PHOENIX        PTCLDY    84  26  12 CALM      29.80R
BUCKEYE        CLEAR     75  27  16 SE3       29.81R
LUKE AFB       CLEAR     74  38  27 CALM      29.80R
DEER VALLEY    CLEAR     72  26  18 CALM      29.82R
SCOTTSDALE     CLEAR     79  32  18 NE3       29.84R
MESA-GATEWAY   PTCLDY    75  25  15 E5        29.84R
$$

AZZ539-553-230600-
SOUTHWEST MARICOPA COUNTY AND PINAL COUNTY

CITY           SKY/WX    TMP DP  RH WIND       PRES   REMARKS
CASA GRANDE    CLEAR     75  22  13 N6        29.84S
GILA BEND      FAIR      77  16  10 SE8       29.79R
$$

AZZ503-504-507>509-230600-
SOUTHEAST ARIZONA

CITY           SKY/WX    TMP DP  RH WIND       PRES   REMARKS
TUCSON         CLEAR     77  18  11 W7        29.93R
DAVIS-MONTHAN  CLEAR     73  20  13 SW7       29.91R
NOGALES        CLEAR     63  13  14 E5        30.00R
SIERRA VISTA   CLEAR     70  11  10 W12       30.05S
DOUGLAS        CLEAR     62  11  13 N8        30.01R
SAFFORD        CLEAR     69  13  11 NW8       29.92R
$$

AZZ532-230600-
SOUTHWEST ARIZONA

CITY           SKY/WX    TMP DP  RH WIND       PRES   REMARKS
YUMA           CLEAR     81  37  20 W6        29.77R
$$

CAZ041-043-047-048-061-525>527-560>570-230600-
SOUTHERN CALIFORNIA

CITY           SKY/WX    TMP DP  RH WIND       PRES   REMARKS
DOWNTOWN L.A.  PTCLDY    69  51  52 CALM      29.84R
L.A. AIRPORT   PTCLDY    65  52  62 S8        29.84S
SAN DIEGO      PTCLDY    67  59  75 S5        29.89S
BURBANK        PTCLDY    75  40  28 E3        29.84F
ONTARIO        PTCLDY    71  41  33 CALM      29.87R
RIVERSIDE      CLEAR     73  48  41 NE5       29.88R
PALM SPRINGS   CLEAR     90  29  11 N10       29.80R
EL CENTRO NAS  CLEAR     82  29  14 W12       29.78R
IMPERIAL       CLEAR     81  39  22 W12       29.75R
BLYTHE         CLEAR     80  31  16 CALM      29.77R
NEEDLES        CLEAR     80  22  11 W7        29.81R
$$

NVZ020-UTZ003-230600-
SOUTHERN NEVADA-UTAH

CITY           SKY/WX    TMP DP  RH WIND       PRES   REMARKS
LAS VEGAS      MOCLDY    74  22  14 SW5       29.87S
SALT LAKE CITY CLOUDY    53  38  56 S5        30.02F
$$

NMZ009-TXZ055-230600-
NEW MEXICO-WEST TEXAS

CITY           SKY/WX    TMP DP  RH WIND       PRES   REMARKS
ALBUQUERQUE    CLEAR     51  30  44 E30G40    30.21R
EL PASO        CLEAR     60  32  34 E12       30.17R
$$


........................KEY........................
SKY/WX - SKY CONDITION/WEATHER
TMP    - TEMPERATURE IN FAHRENHEIT
DP     - DEW POINT IN FAHRENHEIT
RH     - RELATIVE HUMIDITY IN PERCENT
WIND   - DIRECTION AND SPEED IN MILES PER HOUR (MPH)
VRB    - VARIABLE WIND DIRECTION
PRES   - MEAN SEA LEVEL PRESSURE IN INCHES OF MERCURY
         F - FALLING PRESSURE   R - RISING PRESSURE
         S - STEADY PRESSURE
VSB    - VISIBILITY IN MILES
HX     - HEAT INDEX IN FAHRENHEIT
WCI    - WIND CHILL INDEX IN FAHRENHEIT
TC     - TEMPERATURE IN CELSIUS WHICH IS ALSO KNOWN AS
         TEMPERATURE IN CENTIGRADE
AFB    - AIR FORCE BASE
         LUKE AFB IS LUKE AIR FORCE BASE
         DAVIS-MONTHAN IS DAVIS-MONTHAN AIR FORCE BASE
NAS    - NAVAL AIR STATION
         EL CENTRO NAS IS EL CENTRO NAVAL AIR STATION
N/A    - NOT AVAILABLE





USA.gov is the U.S. government's official web portal to all federal, state and local government web resources and services.